{"data":{"norad_id":69840,"intl_designator":"2026-154X","name":"STARLINK-37487","alt_names":[],"object_type":"PAYLOAD","status":"ACTIVE","operator":null,"country":"US","launch_date":"2026-07-05","launch_site_code":"AFETR","launch_vehicle":null,"mission":null,"orbit_class":"UNKNOWN","rcs_meters":null,"size_class":null,"mass_kg":null,"dimensions":null,"purposes":["comms"],"wikipedia_slug":null,"has_3d_model":false,"image_url":null,"decayed_at":null,"tle_current":{"epoch":"2026-09-20T04:32:24.592128Z","epoch_age_seconds":44624,"freshness":"FRESH","line1":"1 69840U 26154X   26263.18917352  .00015831  00000+0  47869-3 0  9994","line2":"2 69840  53.1530 332.9115 0001752  75.6391 284.4806 15.34399637 13192","mean_motion":15.34399637,"eccentricity":0.0001752,"inclination_deg":53.153,"raan_deg":332.9115,"arg_perigee_deg":75.6391,"mean_anomaly_deg":284.4806,"bstar":0.00047869,"rev_number":1319,"period_min":93.847780283332,"perigee_km":461.50580372071,"apogee_km":463.90283451893,"semimajor_km":6840.8413191198,"source":"CELESTRAK","updated_at":"2026-09-20T09:00:44.296927Z"}}}